Weather History for KBRD - January, 2013

Change the Weather History Date:

Sunday, January 13, 2013

  Actual Average Record
Temperature  
Mean Temperature 4 °F -  
Max Temperature 10 °F 17 °F 49 °F (1987)
Min Temperature -2 °F -7 °F -38 °F (1977)
Degree Days  
Heating Degree Days 61    
Moisture  
Dew Point -5 °F    
Average Humidity 69    
Maximum Humidity 73    
Minimum Humidity 61    
Precipitation  
Precipitation 0.00 in - - ()
Sea Level Pressure  
Sea Level Pressure 30.16 in    
Wind  
Wind Speed 6 mph (WNW)    
Max Wind Speed 9 mph    
Max Gust Speed -    
Visibility 10 miles    
Events      
Averages and records for this station are not official NWS values.
T = Trace of Precipitation, MM = Missing Value Source: NWS Daily Summary

Daily Weather History Graph

Daily Weather History Graph

Search for Another Location

Airport or City:

Trip Planner

Search our weather history database for the weather conditions in past years. The results will help you decide how hot, cold, wet, or windy it might be!

Date:

Astronomy

Jan. 13, 2013 Rise Set
Actual Time 7:56 AM CST 4:54 PM CST
Civil Twilight 7:22 AM CST 5:28 PM CST
Nautical Twilight 6:45 AM CST 6:05 PM CST
Astronomical Twilight 6:09 AM CST 6:41 PM CST
Moon 8:45 AM CST (1/13) 7:45 PM CST (1/13)
Length of Visible Light 10h 05m
Length of Day
8h 57m
Waxing Crescent, 5% of the Moon is Illuminated
Jan 13
Waxing Crescent
Jan 18
First Quarter
Jan 26
Full
Feb 3
Last Quarter
Feb 10
New

Hourly Weather History & Observations

Time (CST) Temp. Windchill Dew Point Humidity Pressure Visibility Wind Dir Wind Speed Gust Speed Precip Events Conditions
12:53 AM 1.9 °F -7.6 °F -5.1 °F 72% 30.11 in 10.0 mi NW 4.6 mph - 0.00 in   Scattered Clouds
1:53 AM 1.0 °F -8.7 °F -6.0 °F 72% 30.13 in 10.0 mi WNW 4.6 mph - N/A   Clear
2:53 AM -0.0 °F -11.6 °F -7.1 °F 72% 30.13 in 10.0 mi NW 5.8 mph - N/A   Clear
3:53 AM -0.9 °F -14.1 °F -8.0 °F 72% 30.12 in 10.0 mi NNW 6.9 mph - N/A   Clear
4:53 AM -2.0 °F -15.4 °F -9.0 °F 72% 30.12 in 10.0 mi NW 6.9 mph - N/A   Clear
5:53 AM -2.0 °F -12.2 °F -9.0 °F 72% 30.15 in 10.0 mi WNW 4.6 mph - N/A   Clear
6:53 AM -2.0 °F -12.2 °F -9.0 °F 72% 30.18 in 10.0 mi NW 4.6 mph - N/A   Scattered Clouds
7:05 AM -2.2 °F -10.4 °F -9.4 °F 71% 30.09 in 10.0 mi WNW 3.5 mph - N/A   Mostly Cloudy
7:34 AM -2.2 °F -18.0 °F -9.4 °F 71% 30.07 in 10.0 mi NNW 9.2 mph - N/A   Mostly Cloudy
7:53 AM -2.0 °F -16.6 °F -9.0 °F 72% 30.19 in 10.0 mi NW 8.1 mph - N/A   Mostly Cloudy
8:32 AM -0.4 °F -14.7 °F -7.6 °F 72% 30.10 in 10.0 mi NNW 8.1 mph - N/A   Scattered Clouds
8:53 AM -0.9 °F -16.4 °F -8.0 °F 72% 30.21 in 10.0 mi NNW 9.2 mph - N/A   Clear
9:53 AM -0.0 °F -11.6 °F -7.1 °F 72% 30.22 in 10.0 mi NNW 5.8 mph - N/A   Clear
10:53 AM 1.9 °F - -6.0 °F 69% 30.21 in 10.0 mi Calm Calm - N/A   Mostly Cloudy
11:53 AM 3.0 °F -9.3 °F -6.0 °F 66% 30.17 in 9.0 mi WNW 6.9 mph - N/A   Overcast
12:53 PM 3.9 °F -9.4 °F -5.1 °F 66% 30.14 in 10.0 mi WNW 8.1 mph - N/A   Partly Cloudy
1:53 PM 5.0 °F -5.6 °F -4.0 °F 66% 30.14 in 10.0 mi West 5.8 mph - N/A   Mostly Cloudy
2:53 PM 7.0 °F -3.3 °F -2.9 °F 64% 30.16 in 10.0 mi WNW 5.8 mph - N/A   Clear
3:53 PM 9.0 °F -0.9 °F -2.0 °F 61% 30.17 in 10.0 mi WNW 5.8 mph - N/A   Clear
4:53 PM 10.0 °F 3.6 °F -0.9 °F 61% 30.18 in 10.0 mi WSW 3.5 mph - N/A   Mostly Cloudy
5:53 PM 9.0 °F -3.2 °F -0.9 °F 64% 30.19 in 10.0 mi WSW 8.1 mph - N/A   Partly Cloudy
6:53 PM 8.1 °F -4.3 °F -0.0 °F 70% 30.20 in 10.0 mi WSW 8.1 mph - N/A   Overcast
7:53 PM 8.1 °F -5.3 °F -0.9 °F 67% 30.20 in 10.0 mi West 9.2 mph - N/A   Overcast
8:53 PM 7.0 °F -4.5 °F -0.9 °F 70% 30.22 in 10.0 mi West 6.9 mph - N/A   Scattered Clouds
9:53 PM 6.1 °F -4.3 °F -0.9 °F 73% 30.23 in 10.0 mi WSW 5.8 mph - N/A   Overcast
10:53 PM 6.1 °F -4.3 °F -2.0 °F 69% 30.24 in 10.0 mi West 5.8 mph - N/A   Overcast